"Pseudo-MPEC" for MV001MS

Created 2024 Sep 19 23:22:02 UT using Find_Orb

Click here for an explanation of pseudo-MPECs

 
 Astrometry: 
     MV001MS*KC2024 08 29.92179 21 36 29.23 +17 31 09.0    ~8UNM 19.0 VqNEOCP126
     MV001MS KC2024 08 29.92771 21 36 28.82 +17 31 08.9    ~8UNM 19.0 VqNEOCP126
     MV001MS KC2024 08 29.93323 21 36 28.51 +17 31 08.6    ~8UNM 19.0 VqNEOCP126

Station data:
(126) Monte Viseggi  (N44.133167 E9.790300)  Italy. 0.40-m f/5 reflector.

Orbital elements:  MV001MS
   Perihelion 2025 Aug 4.67067 +/- 435 TT = 16:05:45 (JD 2460892.17067)
Epoch 2024 Aug 30.0 TT = JDT 2460552.5   Earth MOID: 0.8965      AutoNEOCP
M 295.79144133 +/- 60               (J2000 ecliptic)
n   0.18903180 +/- 0.164            Peri.  159.25895 +/- 90
a   3.00685717 +/- 1.74             Node   286.69356 +/- 41
e   0.3796897 +/- 0.258             Incl.   26.21364 +/- 32
P   5.21398                H 14.51  G  0.15   U 11.6  SR
q 1.86518431 +/- 1.15    Q 4.14853003 +/- 47.6
From 3 observations 2024 Aug. 29 (16.5 min); mean residual 0".18
Residuals in arcseconds: 
240829 126  .17+  .03-    240829 126  .36-  .07+    240829 126  .19+  .04-    

Ephemerides (geocentric):
Date (UTC) HH   RA             Dec           delta  r     elong  mag " sig PA
---- --------  ------------   ------------  ------ ------ -----  --- --------
2024 09 19 23  21 17 36.258   +16 34 51.29  2.0120 2.8436 138.6 19.1  32d 103
2024 09 20 00  21 17 34.489   +16 34 40.41  2.0121 2.8435 138.5 19.1  32d 103
2024 09 20 01  21 17 32.722   +16 34 29.51  2.0122 2.8433 138.5 19.1  32d 103
2024 09 20 02  21 17 30.958   +16 34 18.61  2.0123 2.8431 138.5 19.1  32d 103
2024 09 20 03  21 17 29.196   +16 34 07.69  2.0124 2.8430 138.4 19.1  32d 103
2024 09 20 04  21 17 27.437   +16 33 56.76  2.0125 2.8428 138.4 19.1  32d 103
2024 09 20 05  21 17 25.680   +16 33 45.82  2.0126 2.8426 138.4 19.1  32d 103
2024 09 20 06  21 17 23.925   +16 33 34.87  2.0128 2.8425 138.3 19.1  32d 103
2024 09 20 07  21 17 22.173   +16 33 23.91  2.0129 2.8423 138.3 19.1  32d 103
2024 09 20 08  21 17 20.423   +16 33 12.93  2.0130 2.8421 138.3 19.1  32d 103
2024 09 20 09  21 17 18.675   +16 33 01.94  2.0131 2.8420 138.2 19.1  32d 103
2024 09 20 10  21 17 16.930   +16 32 50.94  2.0132 2.8418 138.2 19.1  32d 103
2024 09 20 11  21 17 15.187   +16 32 39.93  2.0133 2.8417 138.2 19.1  32d 103
2024 09 20 12  21 17 13.446   +16 32 28.91  2.0134 2.8415 138.1 19.1  32d 103
2024 09 20 13  21 17 11.708   +16 32 17.88  2.0135 2.8413 138.1 19.1  32d 103
2024 09 20 14  21 17 09.972   +16 32 06.83  2.0136 2.8412 138.1 19.1  32d 103
2024 09 20 15  21 17 08.239   +16 31 55.77  2.0137 2.8410 138.1 19.1  32d 103
2024 09 20 16  21 17 06.508   +16 31 44.70  2.0139 2.8408 138.0 19.1  32d 103
2024 09 20 17  21 17 04.780   +16 31 33.62  2.0140 2.8407 138.0 19.1  32d 103
2024 09 20 18  21 17 03.054   +16 31 22.53  2.0141 2.8405 138.0 19.1  32d 103
2024 09 20 19  21 17 01.330   +16 31 11.43  2.0142 2.8403 137.9 19.1  32d 103
2024 09 20 20  21 16 59.609   +16 31 00.31  2.0143 2.8402 137.9 19.1  32d 103
2024 09 20 21  21 16 57.890   +16 30 49.19  2.0144 2.8400 137.9 19.1  32d 103
2024 09 20 22  21 16 56.173   +16 30 38.05  2.0145 2.8398 137.8 19.1  32d 103
2024 09 20 23  21 16 54.459   +16 30 26.90  2.0147 2.8397 137.8 19.1  32d 103
2024 09 21 00  21 16 52.747   +16 30 15.74  2.0148 2.8395 137.8 19.1  32d 103
2024 09 21 01  21 16 51.038   +16 30 04.57  2.0149 2.8394 137.7 19.1  32d 103
2024 09 21 02  21 16 49.331   +16 29 53.39  2.0150 2.8392 137.7 19.1  32d 103
2024 09 21 03  21 16 47.627   +16 29 42.19  2.0151 2.8390 137.7 19.1  32d 103
2024 09 21 04  21 16 45.925   +16 29 30.99  2.0152 2.8389 137.6 19.1  32d 103
2024 09 21 05  21 16 44.225   +16 29 19.77  2.0154 2.8387 137.6 19.1  32d 103
2024 09 21 06  21 16 42.528   +16 29 08.54  2.0155 2.8385 137.6 19.1  32d 103
2024 09 21 07  21 16 40.833   +16 28 57.31  2.0156 2.8384 137.5 19.1  32d 103
2024 09 21 08  21 16 39.141   +16 28 46.06  2.0157 2.8382 137.5 19.1  32d 103
2024 09 21 09  21 16 37.451   +16 28 34.80  2.0158 2.8380 137.5 19.1  32d 103
2024 09 21 10  21 16 35.764   +16 28 23.53  2.0159 2.8379 137.4 19.1  32d 103
2024 09 21 11  21 16 34.079   +16 28 12.24  2.0161 2.8377 137.4 19.1  32d 103
2024 09 21 12  21 16 32.396   +16 28 00.95  2.0162 2.8375 137.4 19.1  32d 103
2024 09 21 13  21 16 30.716   +16 27 49.65  2.0163 2.8374 137.4 19.1  32d 103
2024 09 21 14  21 16 29.039   +16 27 38.33  2.0164 2.8372 137.3 19.1  32d 103
2024 09 21 15  21 16 27.363   +16 27 27.00  2.0165 2.8371 137.3 19.1  32d 103
2024 09 21 16  21 16 25.691   +16 27 15.67  2.0167 2.8369 137.3 19.1  32d 103
2024 09 21 17  21 16 24.020   +16 27 04.32  2.0168 2.8367 137.2 19.1  32d 103
2024 09 21 18  21 16 22.353   +16 26 52.96  2.0169 2.8366 137.2 19.1  32d 103
2024 09 21 19  21 16 20.687   +16 26 41.59  2.0170 2.8364 137.2 19.1  32d 103
2024 09 21 20  21 16 19.024   +16 26 30.21  2.0171 2.8362 137.1 19.1  32d 103
2024 09 21 21  21 16 17.364   +16 26 18.82  2.0173 2.8361 137.1 19.1  32d 103
2024 09 21 22  21 16 15.706   +16 26 07.42  2.0174 2.8359 137.1 19.1  32d 103